Location: Seattle
(47.6064°N, 122.3308°W)
Time: 14:39:10
(UTC-08:00)

S-56A Canister/Altair - Pass Details

Date: 11 October 2022
Orbit: 638 x 2494 km, 38.9° (Epoch: 02 December)

Event Time Altitude Azimuth Distance (km) Brightness Sun altitude
Rises 21:07:45 0° 196° (SSW) 6,040 12.1 -27.3°
Reaches altitude 10° 21:12:50 10° 183° (S) 5,127 11.5 -28.1°
Enters shadow 21:18:43 20° 162° (SSE) 4,337 10.9 -29.0°
